{"data":{"norad_id":60285,"epoch":"2026-05-25T04:43:35.946048Z","epoch_age_seconds":53942,"freshness":"FRESH","line1":"1 60285U 24132H   26145.19694382 -.00008564  00000+0 -27703-3 0  9999","line2":"2 60285  53.1598  57.0884 0000834  87.9701 272.1395 15.30238872103274","mean_motion":15.30238872,"eccentricity":8.34e-5,"inclination_deg":53.1598,"raan_deg":57.0884,"arg_perigee_deg":87.9701,"mean_anomaly_deg":272.1395,"bstar":-0.00027703,"rev_number":10327,"period_min":94.102955188816,"perigee_km":474.52744720802,"apogee_km":475.670566974,"semimajor_km":6853.236007091,"source":"CELESTRAK","updated_at":"2026-05-25T13:38:19.204955Z"}}